When you browse on this site, cookies collect data to enhance your experience and personalize the content and advertising you see.
Visit our Privacy Policy to learn more. By continuing to use the site, you agree to this use of cookies and data.
  • In Romania
  • List of Countries
  • For 7 days
  • Water Temperature
  • Weather Map
  • Weather Widgets
  • user-avatar
    Login

    Hourly Weather Mazatenango

    Today, 7 December, Saturday

    Time Temperature Precipitation Wind Pressure Humidity
    00:00 +24°C° 0 mm 2 mps 729 mmHg 73%
    01:00 +24°C° 0 mm 2 mps 729 mmHg 71%
    02:00 +24°C° 0 mm 2 mps 728 mmHg 69%
    03:00 +24°C° 0 mm 2 mps 728 mmHg 67%
    04:00 +23°C° 0 mm 2 mps 728 mmHg 66%
    05:00 +23°C° 0 mm 2 mps 728 mmHg 64%
    06:00 +23°C° 0 mm 2 mps 728 mmHg 63%
    07:00 +25°C° 0 mm 1 mps 729 mmHg 59%
    08:00 +27°C° 0 mm 1 mps 730 mmHg 54%
    09:00 +29°C° 0 mm 1 mps 730 mmHg 50%
    10:00 +30°C° 0 mm 1 mps 730 mmHg 48%
    11:00 +31°C° 0 mm 1 mps 729 mmHg 46%
    12:00 +32°C° 0 mm 1 mps 729 mmHg 45%
    13:00 +32°C° 0 mm 2 mps 728 mmHg 47%
    14:00 +32°C° 0 mm 2 mps 728 mmHg 49%
    15:00 +32°C° 0 mm 2 mps 727 mmHg 51%
    16:00 +30°C° 0 mm 1 mps 727 mmHg 61%
    17:00 +27°C° 0 mm 1 mps 728 mmHg 72%
    18:00 +25°C° 0 mm 1 mps 728 mmHg 82%
    19:00 +25°C° 0 mm 1 mps 728 mmHg 80%
    20:00 +25°C° 0 mm 1 mps 729 mmHg 77%
    21:00 +24°C° 0 mm 2 mps 729 mmHg 74%
    22:00 +24°C° 0 mm 2 mps 729 mmHg 73%
    23:00 +24°C° 0 mm 2 mps 729 mmHg 71%

    Tomorrow, 8 December, Sunday

    Time Temperature Precipitation Wind Pressure Humidity
    00:00 +24°C° 0 mm 2 mps 728 mmHg 69%
    01:00 +24°C° 0 mm 2 mps 728 mmHg 67%
    02:00 +24°C° 0 mm 2 mps 728 mmHg 66%
    03:00 +24°C° 0 mm 2 mps 727 mmHg 64%
    04:00 +23°C° 0 mm 2 mps 727 mmHg 64%
    05:00 +23°C° 0 mm 2 mps 727 mmHg 64%
    06:00 +23°C° 0 mm 2 mps 728 mmHg 64%
    07:00 +25°C° 0 mm 1 mps 728 mmHg 60%
    08:00 +27°C° 0 mm 1 mps 729 mmHg 55%
    09:00 +28°C° 0 mm 0 mps 729 mmHg 50%
    10:00 +31°C° 0 mm 1 mps 729 mmHg 49%
    11:00 +32°C° 0 mm 1 mps 728 mmHg 48%
    12:00 +34°C° 0 mm 2 mps 728 mmHg 47%
    13:00 +32°C° 0 mm 2 mps 727 mmHg 50%
    14:00 +32°C° 0 mm 2 mps 726 mmHg 53%
    15:00 +31°C° 0 mm 2 mps 726 mmHg 56%
    16:00 +29°C° 0 mm 2 mps 726 mmHg 66%
    17:00 +27°C° 0 mm 1 mps 726 mmHg 76%
    18:00 +25°C° 0 mm 1 mps 726 mmHg 86%
    19:00 +25°C° 0 mm 1 mps 727 mmHg 85%
    20:00 +25°C° 0 mm 1 mps 727 mmHg 84%
    21:00 +24°C° 0 mm 1 mps 728 mmHg 83%
    22:00 +24°C° 0 mm 2 mps 727 mmHg 80%
    23:00 +24°C° 0 mm 2 mps 727 mmHg 77%

    Day after tomorrow, 9 December, Monday

    Time Temperature Precipitation Wind Pressure Humidity
    00:00 +24°C° 0 mm 2 mps 727 mmHg 74%
    01:00 +24°C° 0 mm 2 mps 727 mmHg 72%
    02:00 +23°C° 0 mm 1 mps 727 mmHg 69%
    03:00 +23°C° 0 mm 1 mps 726 mmHg 67%
    04:00 +23°C° 0 mm 1 mps 726 mmHg 66%
    05:00 +23°C° 0 mm 1 mps 727 mmHg 65%
    06:00 +23°C° 0 mm 1 mps 727 mmHg 64%
    07:00 +25°C° 0 mm 1 mps 727 mmHg 59%
    08:00 +28°C° 0 mm 1 mps 728 mmHg 55%
    09:00 +28°C° 0 mm 0 mps 728 mmHg 51%
    10:00 +31°C° 0 mm 1 mps 728 mmHg 51%
    11:00 +32°C° 0 mm 1 mps 727 mmHg 50%
    12:00 +34°C° 0 mm 2 mps 727 mmHg 50%
    13:00 +32°C° 0 mm 2 mps 726 mmHg 53%
    14:00 +32°C° 0 mm 2 mps 725 mmHg 56%
    15:00 +31°C° 0 mm 2 mps 725 mmHg 59%
    16:00 +29°C° 0.2 mm 1 mps 725 mmHg 69%
    17:00 +27°C° 0.2 mm 1 mps 725 mmHg 78%
    18:00 +24°C° 0.2 mm 0 mps 726 mmHg 88%
    19:00 +23°C° 0.3 mm 0 mps 726 mmHg 89%
    20:00 +24°C° 0.3 mm 1 mps 727 mmHg 89%
    21:00 +24°C° 0.3 mm 1 mps 727 mmHg 90%
    22:00 +24°C° 0.2 mm 1 mps 727 mmHg 90%
    23:00 +24°C° 0.2 mm 1 mps 727 mmHg 89%

    10 December, Tuesday

    Time Temperature Precipitation Wind Pressure Humidity
    00:00 +23°C° 0.2 mm 1 mps 727 mmHg 89%
    01:00 +23°C° 0 mm 1 mps 727 mmHg 88%
    02:00 +23°C° 0 mm 1 mps 726 mmHg 87%
    03:00 +23°C° 0 mm 1 mps 726 mmHg 86%
    04:00 +23°C° 0 mm 1 mps 726 mmHg 84%
    05:00 +23°C° 0 mm 1 mps 726 mmHg 83%
    06:00 +23°C° 0 mm 1 mps 726 mmHg 81%
    07:00 +25°C° 0 mm 1 mps 727 mmHg 74%
    08:00 +27°C° 0 mm 1 mps 728 mmHg 68%
    09:00 +29°C° 0 mm 1 mps 728 mmHg 61%
    10:00 +30°C° 0 mm 1 mps 728 mmHg 58%
    11:00 +31°C° 0 mm 2 mps 727 mmHg 55%
    12:00 +32°C° 0 mm 2 mps 727 mmHg 53%
    13:00 +32°C° 0.1 mm 2 mps 726 mmHg 56%
    14:00 +31°C° 0.1 mm 2 mps 726 mmHg 60%
    15:00 +30°C° 0.1 mm 2 mps 725 mmHg 64%
    16:00 +29°C° 0.2 mm 2 mps 725 mmHg 71%
    17:00 +27°C° 0.2 mm 1 mps 726 mmHg 78%
    18:00 +26°C° 0.2 mm 1 mps 726 mmHg 85%
    19:00 +25°C° 0.1 mm 1 mps 726 mmHg 85%
    20:00 +25°C° 0.1 mm 1 mps 727 mmHg 86%
    21:00 +24°C° 0.1 mm 1 mps 727 mmHg 86%
    22:00 +24°C° 0 mm 1 mps 727 mmHg 85%
    23:00 +24°C° 0 mm 1 mps 727 mmHg 83%

    11 December, Wednesday

    Time Temperature Precipitation Wind Pressure Humidity
    00:00 +23°C° 0 mm 1 mps 727 mmHg 82%
    01:00 +23°C° 0 mm 1 mps 726 mmHg 79%
    02:00 +23°C° 0 mm 1 mps 726 mmHg 76%
    03:00 +23°C° 0 mm 1 mps 726 mmHg 73%
    04:00 +23°C° 0 mm 1 mps 726 mmHg 72%
    05:00 +23°C° 0 mm 1 mps 726 mmHg 70%
    06:00 +23°C° 0 mm 1 mps 726 mmHg 69%
    07:00 +25°C° 0 mm 1 mps 727 mmHg 65%
    08:00 +27°C° 0 mm 1 mps 728 mmHg 60%
    09:00 +27°C° 0 mm 0 mps 728 mmHg 55%
    10:00 +31°C° 0 mm 1 mps 728 mmHg 52%
    11:00 +32°C° 0 mm 1 mps 728 mmHg 49%
    12:00 +33°C° 0 mm 1 mps 727 mmHg 46%
    13:00 +34°C° 0 mm 2 mps 727 mmHg 48%
    14:00 +32°C° 0 mm 2 mps 726 mmHg 51%
    15:00 +32°C° 0 mm 2 mps 726 mmHg 53%
    16:00 +30°C° 0.1 mm 2 mps 726 mmHg 64%
    17:00 +28°C° 0.1 mm 1 mps 726 mmHg 75%
    18:00 +26°C° 0.1 mm 1 mps 726 mmHg 86%
    19:00 +25°C° 0 mm 1 mps 727 mmHg 84%
    20:00 +25°C° 0 mm 1 mps 727 mmHg 83%
    21:00 +25°C° 0 mm 1 mps 728 mmHg 82%
    22:00 +24°C° 0 mm 1 mps 728 mmHg 80%
    23:00 +24°C° 0 mm 2 mps 727 mmHg 78%

    12 December, Thursday

    Time Temperature Precipitation Wind Pressure Humidity
    00:00 +24°C° 0 mm 2 mps 727 mmHg 77%
    01:00 +24°C° 0 mm 2 mps 727 mmHg 76%
    02:00 +24°C° 0 mm 2 mps 727 mmHg 74%
    03:00 +24°C° 0 mm 1 mps 726 mmHg 73%
    04:00 +24°C° 0 mm 2 mps 727 mmHg 72%
    05:00 +24°C° 0 mm 2 mps 727 mmHg 71%
    06:00 +24°C° 0 mm 2 mps 727 mmHg 71%
    07:00 +26°C° 0 mm 1 mps 727 mmHg 66%
    08:00 +28°C° 0 mm 1 mps 728 mmHg 61%
    09:00 +30°C° 0 mm 1 mps 729 mmHg 56%
    10:00 +31°C° 0.1 mm 1 mps 728 mmHg 54%
    11:00 +32°C° 0.1 mm 1 mps 728 mmHg 53%
    12:00 +33°C° 0.1 mm 1 mps 727 mmHg 52%
    13:00 +32°C° 0.6 mm 2 mps 727 mmHg 57%
    14:00 +32°C° 0.6 mm 2 mps 726 mmHg 62%
    15:00 +31°C° 0.6 mm 2 mps 725 mmHg 67%
    16:00 +29°C° 0.6 mm 2 mps 725 mmHg 74%
    17:00 +27°C° 0.6 mm 1 mps 726 mmHg 81%
    18:00 +25°C° 0.6 mm 1 mps 726 mmHg 89%
    19:00 +25°C° 0.5 mm 1 mps 726 mmHg 89%
    20:00 +24°C° 0.5 mm 2 mps 727 mmHg 89%
    21:00 +24°C° 0.5 mm 2 mps 727 mmHg 90%
    22:00 +23°C° 0 mm 2 mps 727 mmHg 88%
    23:00 +23°C° 0 mm 2 mps 727 mmHg 86%
    Show more